Weather in Pavlo-Antonovka

Russia / Orenburg Oblast     52°24′42″N   52°42′38″E
temp.,
°C
wind,
m/s
gust,
m/s
humid.,
%
clouds,
%
prec.,
mm/h
press.,
hPa
HPBL,
m
1 march, mon
mon123:00−12nw479597 0.6 1011220
02:00−14nw349692 0.1 1013121
05:00−15nw349693 0.3 101590
08:00−17nw359691 0.1 1017144
11:00−16nw359475 0.1 1019215
14:00−14wnw359281 0.0 1020362
17:00−15wnw569386 0.1 1021327
20:00−19wnw449889 0.0 102274
2 march, tue
tue223:00−21w239966 0.0 102320
02:00−22wsw239940 0.0 102223
05:00−21sw349959 0.0 102139
08:00−17ssw599692 0.0 1018251
11:00−14ssw7129496 0.1 1016334
14:00−10sw81493100 0.8 1012555
17:00−5sw81394100 1.8 1009764
20:00−4sw81592100 0.7 1006677
3 march, wed
wed323:00−2sw81594100 1.6 1004692
02:00−2sw71395100 0.8 1002576
05:00−2wsw5996100 1.6 1002291
08:00−3w2398100 0.3 100259
11:00−3nw3496100 0.4 1003225
14:00−3wnw349461 0.0 1003278
17:00−3wnw359461 0.0 1004323
20:00−6wnw369691 0.1 1005197
4 march, thu
thu423:00−7wnw349791 0.1 100767
02:00−9wnw489689 0.1 1007206
05:00−12wnw469787 0.1 1009107
08:00−14w469795 0.1 101095
11:00−11wsw589279 0.1 1011266
14:00−7wsw6109378 0.1 1011449
17:00−6sw7129289 0.1 1010533
20:00−5sw81491100 0.1 1009845
5 march, fri
fri523:00−3sw91689100 0.2 1007882
02:00−1sw101788100 0.1 1005934
05:00−1sw101787100 0.1 1004854
08:00−2sw111892100 0.1 1004835
11:00−1wsw101692100 0.4 1006968
14:000wsw81296100 0.2 1008814
17:00−1nw4690100 1.3 1011438
20:00−3w2391100 0.4 101382